This is the latest recevied weather packets stored in our database for station/object DL4ABR-6. If no packets are shown the sender has not sent any weather packets the latest 10 day(s).
| Time | Temp. | Humidity | Pressure | Rain* | Wind** | Luminosity | Snow |
|---|---|---|---|---|---|---|---|
| 1777843180 | 18.33° C | 61% | 1007.1 hPa | 0 mm | - | - | - |
| 1777842310 | 18.33° C | 60% | 1007.3 hPa | 0 mm | - | - | - |
| 1777841515 | 18.89° C | 57% | 1007.5 hPa | 0 mm | - | - | - |
| 1777840685 | 18.89° C | 56% | 1007.2 hPa | 0 mm | - | - | - |
| 1777839900 | 19.44° C | 55% | 1006.9 hPa | 0 mm | - | - | - |
| 1777839033 | 19.44° C | 53% | 1007 hPa | 0 mm | - | - | - |
| 1777838150 | 20° C | 51% | 1006.8 hPa | 0 mm | - | - | - |
| 1777837280 | 20° C | 48% | 1006.6 hPa | 0 mm | - | - | - |
| 1777836460 | 20° C | 45% | 1006.4 hPa | 0 mm | - | - | - |
| 1777835605 | 20.56° C | 45% | 1006.5 hPa | 0 mm | - | - | - |
| 1777834725 | 20.56° C | 46% | 1006 hPa | 0 mm | - | - | - |
| 1777834005 | 20.56° C | 46% | 1005.9 hPa | 0 mm | - | - | - |
| 1777833225 | 20.56° C | 47% | 1006.1 hPa | 0 mm | - | - | - |
| 1777832370 | 21.11° C | 47% | 1005.9 hPa | 0 mm | - | - | - |
| 1777831520 | 21.11° C | 46% | 1005.7 hPa | 0 mm | - | - | - |
| 1777830785 | 21.67° C | 44% | 1005.4 hPa | 0 mm | - | - | - |
| 1777830065 | 21.67° C | 44% | 1005.4 hPa | 0 mm | - | - | - |
| 1777829310 | 22.22° C | 42% | 1005.5 hPa | 0 mm | - | - | - |
| 1777828500 | 22.22° C | 41% | 1005.5 hPa | 0 mm | - | - | - |
| 1777827675 | 22.78° C | 41% | 1005.8 hPa | 0 mm | - | - | - |
| 1777826870 | 22.78° C | 39% | 1005.9 hPa | 0 mm | - | - | - |
| 1777825998 | 23.33° C | 38% | 1005.8 hPa | 0 mm | - | - | - |
| 1777825135 | 23.89° C | 36% | 1005.7 hPa | 0 mm | - | - | - |
| 1777824375 | 23.89° C | 35% | 1005.6 hPa | 0 mm | - | - | - |
| 1777823595 | 25° C | 35% | 1005.7 hPa | 0 mm | - | - | - |
* Rain since midnight (hover to see other rain measurements)
** Current wind speed in m/s (hover to see current wind gust speed)